Theta_e
329 328 327 326 326 325 325 325 324 324 324 324 324 323 321 321 321 322 321 320 321 323 322 322 322 322 322 321 321 320 319 319 317 317 316 313 313 316 317 317 319 319 319 319 319 320 321 321 321 321 322 323 323 324 324 324 324 324 325 326 328 330 330 330 330 330 330 331 332 331 330 330 328 325 329 332 332 332 332 333 333 332 330 330 331
331 329 328 327 327 326 325 325 325 325 324 324 324 322 321 321 322 323 322 321 322 323 323 323 323 322 322 322 321 321 320 319 318 317 316 313 311 314 316 317 318 319 319 320 320 320 321 321 320 320 320 321 323 323 323 323 323 323 324 325 327 329 329 329 330 330 331 332 333 332 330 330 328 327 328 330 333 333 333 332 332 331 330 330 331
330 330 328 328 327 327 326 326 325 325 325 324 324 323 322 321 322 324 323 321 321 323 323 323 322 322 322 322 321 321 321 320 319 318 317 315 311 312 315 317 318 319 319 320 320 320 320 321 320 320 321 321 322 323 322 322 322 322 323 325 326 327 328 329 329 330 331 331 332 332 333 332 330 328 327 329 333 334 333 332 332 332 331 331 331
331 332 330 328 327 327 327 327 326 325 325 324 323 323 323 322 323 324 323 322 322 322 322 322 322 322 322 322 321 321 321 321 320 319 317 316 313 312 315 316 317 318 319 320 320 320 320 320 320 319 320 321 322 323 322 322 323 322 322 324 325 326 327 328 328 330 331 330 331 332 333 333 332 329 326 329 332 332 332 333 332 332 331 330 330
332 333 332 330 328 328 328 328 327 326 327 326 324 323 323 323 323 324 324 323 322 321 321 322 322 322 323 323 322 322 322 321 320 320 318 317 314 312 313 316 317 317 318 319 320 319 318 319 319 319 319 320 321 322 322 322 322 322 322 323 324 324 326 327 327 328 330 329 329 331 332 333 333 330 328 330 331 330 330 331 332 332 331 331 330
331 332 333 331 329 328 329 328 327 327 327 326 325 324 323 324 324 324 324 323 322 322 322 322 322 323 324 324 323 322 322 321 321 320 319 318 316 314 313 314 316 317 318 319 318 317 317 318 319 319 319 319 320 320 321 321 322 322 322 322 323 323 323 325 326 326 328 329 328 329 330 330 331 331 330 331 331 330 329 329 330 331 331 331 331
332 331 331 331 330 329 328 327 327 327 328 326 325 324 324 324 324 324 324 323 323 323 323 323 323 323 323 323 323 322 322 322 322 321 320 319 318 315 314 313 315 317 317 318 318 317 318 319 319 319 319 319 319 319 319 320 321 321 321 321 322 321 322 324 325 325 327 329 328 328 329 329 330 331 331 331 331 332 331 329 330 331 331 332 331
330 331 331 330 330 329 329 328 328 328 327 326 324 324 324 324 324 324 324 324 324 324 324 323 324 324 323 323 324 323 322 322 322 321 320 319 318 317 315 313 315 316 317 317 318 318 318 318 319 319 319 319 319 319 318 318 319 320 320 320 320 320 321 322 323 324 325 327 327 327 329 329 330 330 330 331 331 332 330 329 330 332 332 332 332
326 329 330 330 330 329 328 328 328 327 326 325 325 324 324 324 324 324 323 323 323 323 324 324 324 324 323 323 324 323 322 321 321 321 320 320 319 317 316 314 315 316 316 316 317 318 318 318 318 319 319 319 318 318 318 318 318 319 319 320 320 320 320 320 322 323 323 325 326 327 328 328 329 329 329 330 330 330 329 329 330 331 331 330 331
325 326 329 329 328 327 327 327 326 325 325 325 325 325 325 325 324 324 324 324 324 323 324 324 324 324 324 324 324 323 322 321 321 322 321 320 319 318 316 315 315 316 316 317 317 317 318 318 318 318 318 318 318 318 317 317 318 319 319 319 319 319 319 320 321 322 322 323 325 325 326 328 328 329 329 329 329 329 330 330 329 330 329 329 330
324 324 326 327 326 324 324 324 324 324 324 324 324 325 325 325 325 325 325 324 324 324 324 324 324 324 324 324 324 323 322 321 321 322 321 320 320 319 317 316 316 315 316 317 316 317 318 318 318 318 317 317 317 317 317 317 317 318 318 318 318 318 318 319 320 321 321 322 323 324 325 327 328 328 328 328 329 329 329 329 329 329 329 328 328
324 323 324 326 326 324 324 324 323 322 322 322 323 324 324 325 325 325 325 325 325 325 324 325 325 325 324 324 324 323 322 322 322 322 322 321 320 319 318 316 316 316 316 316 315 316 317 318 317 317 317 317 317 317 316 316 316 317 317 317 318 318 318 318 318 319 320 320 322 322 323 325 325 326 327 327 327 328 328 328 329 329 329 329 329
324 323 323 325 326 326 326 327 325 323 322 321 321 322 322 322 323 323 325 325 325 325 325 325 325 325 324 324 323 322 322 323 323 322 322 321 320 320 318 317 316 316 315 315 315 315 317 317 317 317 317 316 316 316 316 316 316 316 316 316 317 317 317 317 317 318 318 319 320 320 321 323 323 324 325 326 326 327 327 328 328 329 329 329 329
324 323 323 324 325 326 326 326 326 326 325 322 320 321 321 321 321 322 324 325 325 325 326 325 325 325 325 324 323 323 323 323 323 323 323 322 320 320 319 317 316 316 315 315 315 315 316 317 317 317 316 316 316 316 316 316 315 315 315 315 316 316 316 316 316 316 317 317 318 318 320 321 321 323 324 325 325 326 327 327 327 327 328 329 329
324 323 323 324 325 324 323 322 322 323 322 321 320 321 321 321 321 321 323 324 323 324 325 325 325 324 324 324 324 324 323 322 323 322 322 322 321 320 319 318 317 316 315 315 315 315 315 316 317 317 316 316 316 316 315 315 314 314 315 315 314 315 315 315 315 315 315 316 316 317 318 319 320 321 323 323 325 325 325 326 327 326 327 328 329
323 323 324 324 323 321 320 320 320 320 320 320 320 320 321 321 321 321 322 323 322 322 323 324 324 324 324 324 324 323 320 320 322 322 322 322 321 320 320 319 318 317 316 315 315 315 315 316 317 316 316 316 315 315 315 314 314 314 315 314 314 314 315 315 314 314 314 315 315 316 316 317 318 319 320 322 323 324 324 325 326 326 326 327 328
322 322 323 324 323 321 320 320 320 320 320 321 321 321 321 321 321 321 321 321 321 321 321 322 322 322 323 323 322 320 318 319 321 321 322 322 321 321 321 319 318 317 316 315 315 315 315 315 316 316 316 316 315 315 314 314 314 314 314 315 315 315 315 315 314 314 314 314 315 315 315 316 316 317 318 320 321 322 323 323 324 325 325 325 326
321 322 323 324 324 322 321 320 320 320 320 320 321 321 321 321 321 322 321 321 321 321 321 321 320 320 321 320 319 318 318 319 319 321 321 322 321 321 321 320 318 317 317 316 315 315 315 315 316 316 316 316 316 315 314 314 314 314 314 314 315 315 315 315 315 314 314 314 314 315 315 316 316 316 317 318 318 319 321 322 322 323 324 324 325
321 322 322 324 324 323 321 320 320 320 320 320 321 321 321 321 321 321 321 321 321 321 321 321 320 319 319 318 318 318 319 319 319 321 321 321 321 321 321 320 318 317 317 316 315 314 314 315 316 316 316 316 316 316 315 314 314 314 314 314 314 314 315 315 315 315 314 314 314 314 315 315 316 316 316 317 317 318 319 320 321 322 323 324 324
321 321 321 323 324 322 320 320 321 321 320 320 320 321 321 321 321 321 321 321 321 321 321 321 320 319 319 319 319 319 319 319 320 321 321 322 322 321 321 320 318 317 317 317 315 314 314 315 315 315 316 316 316 316 315 315 315 315 315 315 315 314 314 315 315 315 315 314 314 314 314 315 316 316 316 316 317 318 319 319 319 319 321 322 323
322 321 321 323 324 322 320 320 321 321 321 320 320 320 320 320 321 321 320 320 320 320 320 320 320 320 320 320 320 319 319 320 320 321 322 322 322 321 321 320 318 317 318 317 315 314 314 314 314 314 315 315 315 315 315 315 315 315 315 315 315 315 314 314 314 315 315 314 314 314 314 315 316 316 316 316 317 318 319 319 318 318 319 320 321
323 322 321 323 324 323 322 322 322 323 323 321 320 321 320 320 321 321 320 320 319 319 319 319 319 319 319 320 321 320 320 320 321 321 322 323 323 322 321 319 317 318 318 317 315 314 313 313 314 314 314 314 314 314 314 315 315 315 315 315 315 315 314 314 314 315 315 314 314 314 314 315 316 316 316 316 316 317 318 318 318 319 320 321 321
323 323 323 323 323 323 323 324 324 324 324 322 321 322 321 321 322 322 320 320 320 319 319 319 319 319 320 320 320 320 320 321 321 321 322 323 323 322 321 318 316 318 318 317 316 314 314 313 313 313 313 313 313 313 314 314 315 315 315 315 315 315 315 315 315 315 315 314 314 314 315 315 316 315 315 315 316 316 317 318 317 318 320 320 320
324 323 324 324 323 323 323 323 323 323 323 323 323 324 322 320 321 322 321 320 319 319 319 319 319 319 320 320 320 321 320 321 321 321 322 322 322 321 319 317 316 318 318 317 316 315 314 313 313 313 313 313 313 313 313 313 314 314 315 315 315 315 315 314 314 314 314 314 314 314 315 315 316 316 315 315 315 316 317 317 317 318 319 319 319
323 323 324 324 324 324 323 323 323 322 323 323 323 323 323 322 321 320 320 319 318 317 317 317 317 316 317 318 319 320 320 321 322 322 322 322 322 320 317 315 317 318 318 317 316 315 314 314 313 313 313 312 312 312 312 313 313 313 314 314 314 314 314 314 314 314 315 314 314 314 315 315 316 316 316 316 316 316 316 317 318 318 318 319 319
324 323 324 324 324 323 323 323 323 322 322 322 322 322 323 323 321 319 319 319 317 315 314 314 314 314 314 315 316 318 320 320 321 321 321 321 319 317 315 315 317 318 318 317 316 315 315 314 314 313 313 312 312 312 312 312 312 313 313 314 314 314 314 314 314 314 314 314 314 314 315 316 316 316 317 317 317 316 316 317 317 317 317 319 321
324 323 323 324 324 323 323 323 323 322 322 322 322 322 322 323 323 321 319 318 315 313 313 314 313 314 316 317 318 319 320 320 321 321 320 318 316 315 315 317 318 318 318 318 316 315 315 315 314 313 313 312 313 312 312 312 312 312 312 312 313 313 314 313 314 314 314 314 314 314 314 316 317 317 318 318 318 318 318 318 318 318 318 320 320
323 323 323 323 323 324 324 324 323 323 322 322 322 322 322 322 322 322 320 317 314 313 316 317 315 315 318 319 320 320 320 320 320 318 317 315 315 315 315 316 317 317 317 318 317 316 316 315 315 314 313 313 312 312 311 311 311 311 311 312 312 313 313 313 314 314 314 314 314 314 314 315 317 318 318 318 318 319 318 319 319 319 319 319 319
322 322 322 323 323 324 324 324 324 323 322 322 322 322 322 322 321 321 320 319 316 315 318 320 319 319 319 318 318 318 318 317 315 314 314 314 315 315 314 315 316 316 317 317 317 316 315 315 315 314 314 313 312 312 311 309 308 309 310 311 311 312 313 313 314 314 313 314 314 314 314 315 315 316 316 317 317 317 317 317 318 318 318 317 317
321 321 322 322 323 324 324 324 324 323 322 322 322 322 322 321 320 320 320 320 318 317 319 321 322 322 320 318 317 315 314 314 313 314 314 314 315 315 314 314 316 316 316 316 316 316 315 315 315 314 314 314 313 313 310 306 305 307 309 310 311 312 312 313 313 313 313 314 314 313 314 314 313 313 314 315 315 315 316 316 316 316 316 317 317
322 321 321 322 323 323 324 324 324 323 322 322 322 322 321 320 320 320 319 319 319 319 320 321 322 323 321 320 319 317 316 316 316 316 316 316 316 315 313 314 315 315 315 315 314 315 315 315 315 315 315 314 313 312 309 306 306 307 307 309 310 311 312 312 312 312 312 313 313 313 313 314 314 314 315 316 316 315 314 314 314 314 315 315 316
322 321 321 322 322 323 323 324 323 322 322 321 321 321 321 320 320 320 319 319 319 320 320 320 321 322 321 321 321 320 320 320 319 319 318 318 318 316 315 315 315 314 314 314 314 315 315 316 316 315 315 314 313 312 309 306 307 308 307 308 309 310 311 311 311 312 312 312 313 313 313 313 313 314 315 316 316 316 315 314 314 314 314 314 315
322 322 321 321 321 322 323 323 323 322 321 320 320 321 320 320 320 320 320 319 320 320 320 319 320 320 320 321 321 320 320 320 320 320 319 318 317 317 317 317 316 315 315 314 315 315 315 316 316 316 316 314 314 313 310 307 306 307 307 307 308 309 310 310 310 311 312 312 313 313 313 313 313 313 313 314 316 317 316 315 315 315 315 315 315
323 322 322 322 322 322 323 323 323 322 321 320 320 320 320 320 320 320 320 320 320 320 320 320 319 319 320 320 320 320 320 320 320 320 319 318 318 318 318 317 316 316 315 314 314 315 315 315 316 316 316 315 314 312 310 307 306 307 307 307 307 308 309 309 310 310 311 312 313 313 313 313 313 313 313 314 316 316 315 315 315 315 315 315 315
323 323 322 322 321 321 322 323 323 321 321 320 320 320 320 320 320 320 320 320 320 320 320 320 320 319 320 320 320 320 320 320 320 320 319 319 319 319 318 318 317 316 315 315 315 315 315 315 315 315 315 315 314 311 308 307 307 307 307 306 306 308 309 309 309 310 311 312 313 313 313 312 312 313 313 313 315 315 315 315 314 315 315 316 316
324 323 323 322 320 320 321 322 322 322 321 321 320 320 320 320 320 320 320 320 320 320 320 320 320 320 320 320 320 321 321 321 320 320 320 319 319 319 319 319 318 317 316 316 315 315 315 315 315 315 315 315 314 311 306 305 306 305 305 305 307 309 309 309 310 311 311 312 312 312 313 312 312 312 312 312 313 314 315 314 313 314 315 316 316
323 321 321 320 319 320 320 320 322 322 321 321 321 320 320 320 320 320 320 320 320 320 320 319 320 320 320 320 320 320 321 321 321 320 320 320 319 319 319 319 318 318 317 316 316 315 316 315 315 315 314 314 314 311 306 304 304 304 304 306 308 309 309 309 310 311 311 311 312 312 312 311 311 311 312 312 313 313 314 314 313 314 315 316 316
319 318 318 318 319 319 318 318 319 318 318 319 320 320 320 320 321 321 321 321 320 320 320 320 320 320 319 320 320 320 320 320 320 320 320 320 320 320 320 319 318 318 318 317 317 317 317 316 316 315 314 313 313 310 305 303 305 305 305 307 308 309 310 310 310 310 311 312 312 312 311 310 310 310 311 311 312 313 314 314 314 314 314 315 315
316 316 317 318 319 319 318 317 318 317 316 317 318 318 319 320 321 321 321 321 321 320 320 320 320 320 320 320 320 320 320 320 320 320 320 321 320 320 320 319 318 318 318 318 317 317 317 317 316 315 314 313 311 309 305 304 304 306 307 307 308 310 310 310 310 311 311 312 311 311 310 309 309 309 309 310 311 312 313 313 313 313 313 313 314
316 315 316 317 318 318 318 318 317 317 318 318 317 317 318 319 320 321 321 321 320 320 320 320 321 320 320 320 320 319 318 318 319 320 320 320 320 320 319 318 317 318 318 318 318 317 317 317 316 315 315 314 312 309 307 304 303 304 306 307 307 309 310 311 311 311 311 310 310 309 309 309 308 308 308 309 309 310 311 313 313 312 312 313 313
318 316 315 316 317 318 318 318 318 318 318 318 318 318 318 318 319 320 321 321 320 320 321 321 321 320 320 320 320 319 318 317 318 319 319 319 318 318 318 318 318 318 318 318 318 317 317 316 316 315 315 314 313 311 309 306 303 303 304 305 306 308 309 310 311 311 310 310 309 309 309 308 308 308 308 308 309 309 309 311 311 312 312 312 312
318 318 317 317 317 318 318 318 318 318 318 318 318 318 318 317 318 318 318 319 320 320 321 321 320 320 320 319 318 318 317 318 318 318 318 318 317 317 317 318 318 318 318 318 318 317 317 316 316 315 315 314 314 313 311 309 305 304 304 305 306 307 307 307 308 309 310 310 309 309 309 308 308 308 308 308 309 309 309 309 310 310 310 310 310
319 319 319 318 318 318 318 319 319 319 319 319 318 318 318 317 318 317 316 318 319 319 319 320 319 319 318 317 317 316 316 317 317 317 317 318 317 317 317 318 318 318 318 318 318 317 317 317 316 316 316 315 315 314 313 311 307 305 305 306 306 307 306 306 307 309 310 310 309 309 309 308 307 307 307 308 308 309 310 310 309 309 309 309 309
319 319 319 319 319 319 319 319 319 319 319 319 319 319 318 318 318 317 317 317 317 317 317 318 317 317 317 317 317 318 318 318 317 317 317 317 317 317 317 317 318 318 318 319 318 318 318 317 317 317 317 316 316 315 314 313 310 307 306 306 306 306 306 306 306 307 309 310 309 309 308 306 305 306 308 307 308 309 309 310 310 310 310 310 310
319 319 319 319 319 319 319 319 319 319 319 319 319 319 319 319 318 318 317 317 317 316 317 317 317 317 317 316 317 319 319 319 318 317 317 318 318 318 317 317 318 318 318 319 319 318 318 318 318 318 317 317 316 316 315 315 313 310 307 306 307 307 307 307 306 306 306 306 306 306 306 305 305 306 307 307 307 309 310 310 311 310 310 311 313
319 319 319 319 319 319 319 318 319 319 319 319 319 319 319 319 319 319 318 318 317 317 317 317 317 317 317 316 317 318 319 320 318 317 317 318 319 319 319 319 319 319 319 319 319 319 318 318 318 318 318 317 317 316 316 316 315 312 309 307 307 307 307 307 307 307 306 304 302 303 305 306 305 306 306 306 307 308 309 311 312 311 312 314 315
318 318 318 318 318 318 318 319 319 319 319 319 319 319 320 319 319 319 318 318 318 317 317 317 317 317 317 317 317 316 318 319 320 319 318 319 319 320 320 320 320 319 319 319 319 319 318 318 318 318 318 317 317 317 316 316 315 314 313 311 310 309 309 308 308 307 307 306 304 303 304 305 306 306 307 307 307 308 309 310 312 313 313 314 315
316 316 316 317 319 319 319 319 319 319 319 319 319 319 320 319 319 319 318 318 318 318 317 317 317 317 318 319 318 316 316 317 319 320 320 319 319 319 320 319 319 319 319 319 319 319 318 318 318 318 317 317 317 317 316 316 316 315 314 313 312 312 312 311 310 310 310 310 309 307 306 306 307 307 308 308 308 308 307 308 311 313 314 314 314
316 315 315 315 317 319 319 319 319 318 318 318 318 318 319 319 320 320 319 319 318 318 318 317 317 317 318 318 318 317 317 318 318 319 320 319 319 319 319 319 319 318 317 317 318 318 318 318 318 318 317 317 317 316 316 316 316 315 313 312 312 312 312 311 311 310 309 308 309 309 309 309 308 308 308 308 307 307 306 306 309 312 314 314 314
315 315 314 314 315 317 318 318 317 317 316 316 316 316 317 318 319 319 319 319 319 319 318 317 317 317 318 318 318 318 319 319 319 319 319 319 318 316 315 315 315 314 314 314 316 316 316 317 317 317 316 316 316 316 316 316 316 315 313 313 312 312 311 311 311 310 308 306 306 308 310 309 308 308 308 308 307 307 306 305 306 310 313 313 314
315 314 314 314 314 315 316 316 315 315 315 315 315 315 315 316 316 315 316 317 318 319 318 318 317 317 317 318 319 319 319 319 319 319 319 318 317 316 314 312 309 309 310 313 314 314 314 315 315 315 315 315 315 315 316 316 316 315 315 314 313 313 312 312 311 311 309 307 306 307 309 308 308 308 308 308 307 308 307 306 305 307 310 312 312
Wind_Speed
12 11 8 9 9 10 10 9 9 10 13 15 13 10 9 10 9 7 5 5 2 1 1 1 1 2 5 8 11 13 13 13 15 18 21 25 20 10 9 9 7 8 7 5 4 2 3 4 4 5 4 4 3 3 3 3 3 4 4 5 4 4 5 6 7 7 8 8 9 10 12 12 11 12 15 14 12 9 10 11 12 14 15 15 14
12 12 9 8 6 9 11 10 10 10 13 16 15 13 12 12 10 8 6 6 5 4 4 3 2 2 4 7 8 10 13 14 13 17 21 26 24 14 9 8 7 7 7 6 4 2 3 4 5 6 5 4 4 4 4 4 4 4 3 3 4 4 5 7 6 5 5 6 8 10 10 11 11 11 13 12 11 10 10 11 11 13 14 15 14
10 11 7 7 6 7 9 11 12 11 11 14 15 13 13 13 11 8 6 6 7 6 4 4 5 5 5 6 7 7 11 14 13 15 19 23 25 19 10 7 7 6 6 7 5 3 3 4 5 6 4 3 3 4 5 5 5 5 4 3 3 4 5 7 6 4 4 6 7 8 7 8 10 10 11 11 12 12 11 12 12 12 13 14 14
8 8 7 7 6 6 9 11 12 12 12 12 13 12 11 11 9 8 7 6 7 7 5 5 7 6 6 6 7 6 7 10 10 11 15 19 23 21 13 8 8 6 6 6 5 4 4 4 5 5 4 4 4 5 5 5 5 6 5 5 4 3 4 7 7 4 5 5 5 6 6 7 8 9 11 12 12 12 12 13 12 12 13 13 14
3 7 7 6 5 6 9 10 9 11 12 12 11 10 9 9 7 7 7 6 6 6 4 5 6 5 5 4 5 5 5 8 9 10 13 16 20 22 16 10 8 6 6 5 5 5 5 6 6 6 5 5 5 5 5 5 5 6 6 5 5 4 4 6 8 7 5 5 6 6 6 5 5 8 10 10 11 12 13 14 13 12 13 13 15
2 3 5 4 3 4 6 8 7 8 9 10 9 9 9 9 9 9 7 5 5 4 3 4 4 4 3 3 4 4 4 6 9 10 11 13 16 20 18 12 8 6 5 5 5 4 4 6 6 6 6 6 6 6 6 6 5 5 5 5 5 6 5 5 7 8 6 6 7 7 7 6 6 8 8 8 10 10 11 13 13 13 13 14 15
4 3 1 2 2 3 4 4 5 6 7 6 7 7 8 9 10 9 7 5 4 4 4 4 5 4 4 3 3 4 4 5 8 9 10 11 12 16 18 15 10 7 6 5 4 4 4 5 5 5 5 6 7 6 6 7 6 6 6 5 6 5 5 5 7 7 5 5 8 7 8 8 8 9 8 8 10 9 9 10 11 12 12 14 16
4 3 1 1 1 2 2 3 4 6 6 6 5 4 5 6 7 8 8 7 6 6 5 6 6 6 5 4 3 3 3 3 6 7 8 9 11 13 15 15 12 8 6 5 4 4 4 4 4 4 4 5 6 6 7 7 6 6 6 6 6 5 5 5 6 6 5 5 6 7 7 7 9 10 10 9 10 10 12 11 9 10 11 12 14
4 3 2 1 1 1 2 3 3 3 4 5 5 5 5 5 6 7 8 9 8 7 7 7 7 7 7 5 4 4 4 3 5 6 7 8 9 12 13 14 13 9 6 5 4 4 4 3 3 3 4 5 6 6 7 7 7 6 6 5 6 5 5 5 6 7 7 5 4 5 6 6 8 10 10 9 10 11 13 12 9 10 12 11 11
5 4 3 2 2 2 2 2 2 2 2 3 4 5 6 6 7 8 8 9 9 9 9 9 8 8 7 6 5 5 4 4 4 5 5 6 8 11 12 13 13 11 8 4 4 4 4 3 3 3 4 5 6 7 7 8 7 6 6 5 5 5 5 4 5 6 7 7 6 6 5 5 7 8 8 8 9 10 11 11 11 11 12 11 10
5 4 3 3 3 3 2 1 0 1 1 1 2 4 5 6 7 7 8 9 10 10 10 10 9 7 7 6 5 4 4 4 4 3 4 5 7 9 11 12 11 12 10 6 4 4 4 3 2 3 4 5 6 7 8 8 8 7 7 7 6 5 5 5 5 6 7 7 8 9 7 6 7 8 7 7 8 8 10 11 10 10 10 11 11
4 5 4 3 2 3 2 1 1 1 1 1 2 3 4 5 6 6 7 8 9 9 10 10 9 7 7 6 4 4 4 5 4 3 4 5 4 6 10 12 10 10 11 9 7 5 4 4 3 3 4 5 6 7 8 8 8 8 8 7 7 6 6 6 6 6 7 7 8 9 9 8 10 10 9 9 9 10 10 11 11 9 10 11 11
3 4 4 1 1 1 1 1 1 1 1 1 2 2 2 3 4 4 5 7 8 8 9 9 8 7 7 6 5 5 4 5 5 4 4 4 4 5 7 10 10 10 10 11 10 6 4 4 4 4 4 5 6 7 7 8 8 8 7 7 7 6 6 6 6 7 7 7 8 9 10 10 11 12 10 9 11 11 11 12 12 10 11 12 10
2 3 4 2 1 2 2 1 1 2 3 2 1 1 1 1 1 1 3 6 7 8 9 9 9 8 8 7 6 5 5 6 6 5 5 5 5 4 5 8 10 10 10 11 10 7 4 3 3 3 4 6 6 7 7 7 7 7 6 6 5 5 6 6 6 7 7 7 8 9 10 11 12 12 12 11 11 11 11 12 13 12 12 12 10
2 3 3 2 0 2 2 1 1 2 4 4 2 0 0 0 1 1 3 5 6 7 8 8 9 9 8 8 7 6 6 6 6 6 6 5 5 4 4 6 8 9 10 10 11 8 5 3 3 4 5 6 6 6 7 7 7 6 5 4 4 5 5 6 6 7 8 9 9 9 10 11 12 12 12 12 11 12 13 11 12 13 14 13 10
3 3 3 2 1 2 2 1 2 2 3 5 4 1 1 1 1 1 2 3 4 5 6 7 8 9 9 9 8 7 5 5 6 6 7 6 5 5 5 5 7 9 10 10 11 9 6 4 3 4 5 5 6 6 6 7 7 5 4 4 4 4 4 5 5 5 7 9 9 9 10 11 12 13 13 12 12 13 14 13 12 12 13 13 12
4 4 3 2 2 1 0 1 3 3 2 4 4 2 1 2 2 2 3 3 4 4 5 6 8 8 9 9 9 7 5 5 5 6 7 7 5 5 5 5 6 8 9 10 10 10 7 4 3 4 4 4 5 5 5 6 7 5 4 4 4 4 5 4 5 5 6 7 8 9 10 11 13 14 14 14 14 14 15 15 14 13 13 14 14
4 3 2 2 3 2 1 2 3 4 3 3 4 3 3 3 3 3 4 4 4 4 4 5 6 7 7 8 7 6 5 5 5 6 6 5 4 5 5 5 6 7 9 9 10 10 8 5 3 3 4 4 5 5 6 6 6 5 5 4 4 4 5 5 5 6 6 6 8 9 10 10 11 13 14 15 17 18 17 16 15 15 14 14 14
3 2 2 2 3 2 2 3 3 4 3 3 3 4 5 5 5 5 5 5 5 5 5 5 6 6 7 7 7 6 6 6 7 7 5 4 5 5 5 5 5 6 8 8 9 9 8 5 4 4 4 4 5 5 5 6 6 6 6 5 5 6 6 6 6 6 7 7 8 10 10 10 11 11 12 14 16 17 18 17 16 16 15 15 15
2 1 1 1 1 0 2 4 3 3 4 4 5 5 6 6 6 6 6 6 6 6 6 6 6 7 7 7 7 7 8 8 8 8 6 5 5 5 5 5 5 6 7 7 8 8 8 6 5 5 5 6 6 6 6 6 6 6 6 6 7 7 7 8 8 7 8 9 9 10 11 11 11 10 11 13 14 15 16 17 18 18 18 18 18
1 1 0 0 1 3 4 4 4 3 4 5 5 6 7 7 6 6 6 6 6 6 7 7 8 8 9 9 9 10 10 10 9 9 8 7 7 6 5 6 5 6 7 6 6 7 8 7 5 5 6 7 7 8 8 7 6 7 7 7 7 8 7 8 9 8 7 8 10 11 11 11 11 10 10 12 14 13 14 15 16 17 18 19 19
1 1 2 2 2 3 4 4 4 3 4 5 5 5 7 8 7 7 7 7 7 7 8 8 8 9 10 10 11 11 11 11 10 9 9 8 8 7 6 6 6 7 7 6 6 7 7 7 6 6 6 7 8 8 9 8 8 8 7 7 8 8 8 8 9 10 9 9 9 11 12 11 11 11 9 10 13 13 13 14 14 15 16 17 18
3 3 3 3 4 4 4 3 3 3 3 4 4 4 5 6 7 8 8 7 7 8 9 9 10 10 11 11 12 12 12 12 11 10 9 8 7 7 7 6 7 7 7 6 6 6 6 7 7 7 7 8 8 9 9 9 9 9 8 8 8 8 8 8 9 10 10 10 10 12 12 11 11 11 10 9 11 11 12 14 14 14 14 15 16
4 4 4 5 5 4 4 3 3 3 3 3 3 3 4 4 4 6 7 7 8 9 10 10 10 11 11 12 12 13 13 12 11 10 8 8 7 8 7 6 7 7 7 7 7 7 7 7 7 7 8 9 10 10 10 10 10 10 9 9 9 9 9 9 9 10 10 10 11 12 13 11 10 10 9 8 8 10 11 12 12 13 14 16 16
5 5 5 5 5 5 5 4 4 3 3 3 2 3 3 2 3 4 6 7 8 8 8 9 10 10 11 12 12 12 12 12 12 10 9 8 8 8 7 7 8 8 7 7 8 8 7 7 7 8 9 9 10 11 11 11 11 11 11 10 9 10 10 9 9 10 9 10 11 13 13 11 10 9 8 6 7 9 10 11 11 12 14 16 17
6 6 6 6 6 6 6 5 5 4 4 3 3 3 3 3 4 4 5 5 6 6 7 8 9 10 10 11 11 12 11 11 11 10 9 9 9 9 8 7 7 7 7 7 8 8 8 8 8 8 9 10 10 11 11 11 11 11 11 11 10 10 10 10 11 10 9 9 11 12 13 10 9 8 7 6 7 7 8 10 11 13 14 15 16
7 7 6 6 7 7 6 6 5 5 5 4 4 3 3 3 4 4 4 5 5 6 7 8 9 8 8 7 8 9 9 9 9 9 9 9 9 8 7 7 7 7 7 8 8 9 9 9 8 8 9 10 10 11 10 10 10 10 11 12 11 11 10 11 11 10 9 10 10 12 13 10 8 8 8 8 9 9 9 10 11 12 13 13 13
7 7 7 7 7 6 6 6 5 5 5 5 5 4 4 4 4 4 5 5 6 6 6 7 7 7 7 6 7 7 7 8 8 9 9 8 7 7 6 6 7 7 8 8 9 9 9 9 9 9 9 9 10 11 9 8 9 9 10 11 11 11 11 11 10 10 10 10 9 11 13 10 8 9 10 10 10 10 10 10 10 10 11 11 13
7 7 6 6 7 6 6 6 5 5 5 5 5 5 5 5 5 5 5 5 6 6 5 5 5 5 6 7 7 7 8 8 8 8 7 6 6 6 6 6 6 7 8 8 8 9 9 9 9 9 9 11 11 10 9 9 9 9 9 10 10 10 10 10 10 11 11 10 10 11 13 13 12 12 12 11 10 10 10 10 10 11 11 12 13
7 7 6 6 7 6 6 6 6 5 5 6 5 5 5 5 5 5 5 5 6 6 5 4 4 4 5 6 6 7 7 7 6 6 6 6 6 6 6 6 6 6 7 8 8 9 9 9 9 9 10 12 11 10 11 12 10 8 7 8 9 10 11 11 12 12 12 11 10 11 12 15 15 13 12 13 13 13 14 13 13 13 13 13 14
7 7 7 7 7 7 7 7 6 6 6 6 5 5 5 5 5 5 4 4 5 5 5 5 4 4 5 5 5 5 5 5 5 6 6 6 6 7 7 6 7 7 7 8 8 8 9 9 9 9 10 11 11 11 13 12 10 10 9 7 9 10 11 12 12 13 13 12 12 11 12 14 14 12 12 14 15 15 16 17 16 16 16 15 15
8 8 7 8 8 8 8 8 7 6 6 6 6 6 5 5 5 5 4 4 4 4 4 5 5 5 5 5 5 5 5 6 6 6 6 7 7 8 8 7 8 8 8 8 8 8 9 10 9 9 10 11 11 13 14 12 10 11 11 10 10 11 11 13 13 13 14 13 13 12 12 13 14 14 14 13 13 14 14 15 15 15 16 16 16
9 8 8 9 9 9 9 9 8 7 7 7 6 6 6 6 5 5 5 5 5 4 5 5 5 6 5 6 6 6 6 7 7 7 8 8 9 8 8 9 9 9 9 9 9 9 9 10 10 10 10 11 11 14 15 13 10 11 12 12 12 12 13 14 13 13 14 14 14 12 12 13 14 15 14 13 12 12 13 14 14 14 15 16 17
10 10 10 10 10 10 10 10 10 9 8 7 7 7 7 7 7 6 6 6 6 6 6 5 6 6 6 7 7 7 7 8 8 8 9 9 9 9 9 9 9 10 10 9 9 10 10 10 11 11 11 11 11 14 15 14 11 11 12 13 14 13 14 14 13 14 14 14 14 12 12 14 15 15 15 14 13 12 11 12 13 13 13 14 15
11 11 11 10 11 11 11 11 11 10 10 9 9 8 8 8 8 8 8 7 7 7 7 7 7 7 7 8 8 8 8 8 8 9 9 10 10 9 9 9 9 10 10 10 10 10 10 10 10 11 11 11 13 14 15 13 13 13 13 14 14 14 14 14 14 14 14 14 14 13 13 15 15 15 15 16 16 14 13 13 13 13 13 14 14
10 11 11 11 12 13 12 12 11 11 11 11 10 10 10 10 10 10 10 9 9 9 9 9 9 9 9 10 10 10 10 10 10 10 11 11 11 11 11 10 10 10 10 10 10 10 11 11 10 11 12 12 13 15 15 13 13 13 12 12 12 12 13 13 13 14 14 15 15 14 13 15 16 16 16 17 18 17 17 16 15 14 13 13 13
10 11 12 13 14 14 14 12 12 13 14 13 12 12 12 12 12 12 12 11 11 11 11 11 11 11 11 11 12 12 12 13 12 12 13 12 12 13 12 12 12 12 11 11 11 11 11 11 10 11 12 12 12 14 14 12 11 11 9 10 11 11 12 13 13 15 15 15 16 15 15 16 16 16 18 19 18 18 18 16 15 15 14 13 13
11 12 13 14 15 15 15 13 13 14 15 15 15 15 15 14 14 14 13 13 13 13 12 12 12 12 12 12 13 13 14 14 15 15 15 14 14 14 14 15 15 13 13 13 12 12 12 11 11 11 11 12 12 13 13 11 10 9 8 9 11 11 12 13 14 15 15 15 15 16 18 19 16 16 19 19 18 18 18 16 15 15 15 15 14
11 13 14 14 15 15 15 14 14 14 14 15 17 18 18 17 16 16 15 15 14 14 13 13 13 13 13 14 15 16 16 17 16 16 16 16 16 16 16 18 18 16 15 15 14 13 13 13 12 12 13 12 12 12 12 10 9 9 8 9 11 12 13 13 14 14 14 14 14 16 18 19 17 17 19 20 20 20 19 19 18 17 17 17 15
9 12 13 14 15 16 16 16 15 13 12 14 17 18 19 20 19 18 17 17 16 15 14 14 13 14 15 15 16 18 18 18 17 16 16 17 17 18 19 21 21 18 16 16 15 15 15 14 14 14 15 14 13 12 12 11 10 9 9 10 11 12 13 13 13 13 13 13 13 13 15 18 18 18 18 20 22 23 22 22 22 20 19 18 18
9 11 13 14 15 16 17 17 16 13 13 16 17 18 19 20 20 20 20 19 17 16 15 15 15 16 16 15 15 16 17 17 17 17 18 18 18 19 20 21 22 21 19 19 19 19 18 17 17 16 16 16 14 13 12 12 10 10 9 9 10 11 11 12 13 13 12 12 12 11 12 17 19 18 18 20 21 24 25 25 25 25 24 24 24
11 12 13 15 16 17 18 18 17 16 16 17 18 18 19 20 21 22 22 19 17 16 16 16 17 17 16 16 16 15 16 17 18 19 20 20 19 19 19 20 21 22 22 22 22 22 21 20 19 18 18 18 17 15 13 12 11 10 8 8 9 10 11 12 12 13 12 12 12 11 12 17 18 18 19 20 18 20 24 25 26 27 28 27 26
15 15 15 16 18 19 19 19 18 18 18 19 19 20 19 20 21 21 21 19 19 18 18 18 19 19 19 19 17 16 17 18 19 19 20 20 20 19 19 19 20 21 22 23 24 24 24 23 21 19 18 18 18 17 15 13 12 11 9 9 10 12 14 14 13 13 13 13 12 11 12 16 17 17 17 18 17 15 17 20 21 22 21 21 21
17 18 18 19 20 21 21 21 20 20 20 20 21 21 21 21 21 20 19 19 20 20 19 20 22 22 22 21 17 15 16 18 18 18 18 18 18 19 19 19 19 20 21 22 22 23 23 23 21 18 17 16 16 16 16 15 14 12 11 11 12 13 15 15 15 14 13 13 14 14 15 17 17 15 15 16 15 13 13 15 16 16 15 15 17
18 19 20 21 22 23 23 23 23 23 23 22 22 23 23 23 22 20 19 19 20 20 20 21 23 23 23 21 18 16 16 17 18 17 17 17 17 18 19 19 19 19 20 20 19 19 19 19 19 18 17 17 16 15 16 17 16 14 13 13 14 15 16 16 16 15 15 15 17 19 19 18 16 14 15 15 14 13 13 14 14 13 11 12 13
20 20 20 21 22 23 24 24 24 23 24 23 23 24 24 24 22 20 20 20 20 21 21 22 23 24 23 22 19 17 16 16 18 18 17 16 16 17 17 16 16 17 18 17 17 17 17 17 18 18 17 17 16 15 15 16 17 16 14 14 15 16 16 16 15 16 17 17 18 19 19 18 17 15 15 14 14 13 14 14 12 10 9 9 9
19 19 20 21 22 23 23 23 22 22 22 23 24 24 25 24 22 21 22 22 22 23 23 23 25 25 23 21 21 19 16 15 16 17 16 16 16 16 16 16 15 15 15 16 16 16 16 16 17 17 17 16 16 16 15 15 15 14 13 14 15 16 16 17 17 17 16 16 17 18 19 18 17 14 13 14 14 13 14 14 11 9 8 8 8
17 18 19 20 21 22 21 21 21 21 20 22 23 24 25 24 23 23 23 24 25 25 24 25 26 26 23 21 21 21 19 16 16 16 16 16 16 16 16 16 16 15 15 15 15 15 15 16 16 15 15 15 15 16 15 14 14 13 12 12 12 14 15 15 15 14 13 13 14 16 17 16 14 13 13 13 12 11 13 14 12 8 7 7 8
16 18 18 19 20 21 20 20 20 20 20 21 22 23 24 24 24 24 26 27 28 28 27 27 27 27 25 23 22 21 18 16 16 16 16 17 16 16 16 17 17 18 18 18 17 16 15 15 15 15 15 15 15 15 16 17 17 17 16 14 14 14 15 15 16 16 16 15 14 15 14 14 13 13 13 12 11 11 13 14 13 9 7 6 7
17 17 19 19 20 20 20 20 20 20 21 21 22 22 22 22 22 24 26 28 30 30 29 29 28 27 26 24 22 20 17 16 16 16 16 16 17 18 19 19 20 21 21 19 18 18 17 16 16 16 16 16 16 17 19 21 21 21 21 19 19 19 19 20 21 21 20 19 16 15 14 14 14 14 14 12 12 12 12 11 11 10 9 7 8
18 18 19 20 19 19 18 18 19 20 21 21 21 20 20 20 21 22 23 25 27 29 29 30 29 29 27 25 21 18 16 16 16 15 15 15 15 17 18 19 19 20 20 19 18 17 17 17 17 17 17 18 17 18 19 21 22 23 23 23 23 23 23 23 23 22 22 21 17 15 15 15 15 14 15 13 12 12 12 11 9 10 10 10 10
Wind_Direction
254 264 239 260 268 258 253 238 233 226 225 224 218 225 226 223 233 247 289 299 261 211 243 283 46 24 21 22 23 25 25 24 21 22 22 20 20 15 12 17 14 15 18 19 22 15 15 358 336 349 345 333 350 347 331 323 311 294 272 258 265 280 292 290 287 288 289 287 289 289 286 285 278 270 270 264 255 247 247 248 236 229 229 226 224
267 279 238 250 275 257 249 240 234 225 228 228 231 246 239 232 240 244 286 297 244 228 256 283 328 351 7 15 21 24 22 24 25 22 20 20 21 21 15 15 15 17 19 20 25 29 19 4 352 356 348 338 354 357 349 344 336 327 305 278 266 269 281 286 294 307 304 303 301 295 293 292 285 280 284 280 267 256 253 256 246 236 233 230 227
256 284 253 246 273 261 244 240 241 237 236 234 240 253 242 239 244 242 283 295 251 243 259 281 307 328 341 353 13 26 15 17 25 21 18 20 20 20 18 13 13 18 24 24 21 19 24 17 6 4 2 0 4 8 2 358 356 352 343 323 286 261 272 279 292 321 314 306 305 300 303 304 295 294 301 296 279 265 256 255 251 240 235 232 230
222 251 262 268 270 249 235 238 245 241 239 238 241 245 236 235 235 237 276 290 255 252 265 286 304 321 327 333 360 22 13 16 25 16 15 20 19 19 20 13 11 16 22 27 21 16 20 22 18 8 5 12 12 11 3 6 8 0 357 351 325 289 287 285 283 301 318 307 295 291 298 302 298 299 302 294 285 278 264 257 253 241 234 232 232
204 219 243 270 263 238 228 231 240 237 236 240 241 241 237 236 233 239 267 279 260 264 286 305 311 315 324 326 344 3 6 16 25 17 14 18 18 19 20 14 10 13 17 21 16 17 14 13 19 11 3 11 16 10 0 5 10 5 6 0 342 326 314 297 281 279 295 298 288 286 287 285 291 299 300 293 288 286 275 268 261 247 238 237 235
67 189 225 250 256 235 221 219 226 227 229 236 238 242 244 243 243 244 259 274 265 275 305 327 330 316 318 319 322 338 350 6 17 18 15 16 16 17 19 17 11 9 16 21 16 21 18 13 20 13 7 14 17 12 6 7 6 1 4 360 351 337 321 312 296 288 286 282 282 280 271 266 282 296 301 299 295 293 286 281 274 261 245 237 235
61 73 198 247 247 222 207 205 214 217 217 220 224 234 242 244 246 245 251 266 265 273 296 320 330 318 306 301 298 315 333 355 8 14 14 15 15 14 17 18 14 9 12 21 19 14 12 15 21 17 16 19 17 13 9 9 4 357 359 353 350 343 329 319 301 299 310 286 272 272 271 272 278 284 289 295 299 300 298 298 290 275 256 238 233
47 55 70 277 257 209 187 189 211 220 221 224 230 240 249 249 251 249 250 255 257 266 286 300 306 305 300 289 279 297 314 345 4 7 8 13 14 12 15 17 17 14 9 16 19 8 5 13 17 18 20 18 17 15 8 7 1 354 357 350 346 345 334 323 302 293 308 303 278 270 272 277 281 278 277 279 285 288 288 293 297 290 276 254 241
38 44 60 66 191 187 190 206 229 242 239 244 256 267 273 268 264 260 258 258 257 263 280 291 290 286 283 272 268 288 302 331 357 359 359 10 10 7 13 17 19 18 12 17 20 6 0 11 17 12 10 10 9 6 0 359 356 353 353 345 344 345 330 325 319 296 285 293 312 297 268 268 282 280 275 272 271 276 283 288 289 287 281 268 257
39 43 56 66 102 141 169 209 246 274 274 266 266 273 275 272 270 267 266 265 262 264 273 282 283 277 268 255 260 280 299 323 345 351 350 3 6 3 9 16 18 18 15 15 16 7 352 358 13 2 355 355 354 353 350 348 346 343 344 339 335 340 332 322 325 314 294 282 289 298 285 276 285 281 275 273 269 267 276 284 283 281 279 272 272
39 36 53 67 85 112 138 163 256 304 308 267 259 273 274 273 271 267 268 268 267 265 264 267 269 268 258 251 258 271 289 310 325 339 336 346 360 1 4 9 12 15 16 8 356 353 339 341 4 354 343 341 343 345 343 343 340 335 336 334 326 325 327 320 311 311 312 297 283 282 285 284 278 280 287 285 279 273 273 279 281 284 286 279 275
41 28 41 73 101 111 135 168 255 282 298 274 264 275 273 271 271 265 264 262 259 256 253 253 254 255 252 247 250 261 281 294 288 302 323 328 342 356 360 3 5 10 12 6 352 341 329 328 340 342 338 338 341 340 338 340 338 334 331 326 322 319 316 313 305 301 305 304 294 282 285 287 272 271 287 288 281 279 279 281 282 285 287 280 273
54 34 32 55 155 156 166 190 237 240 246 279 299 311 299 282 273 264 255 250 246 242 240 240 238 239 241 238 242 255 273 289 282 285 309 314 321 345 355 356 1 4 5 3 356 345 325 318 322 326 326 331 335 336 338 339 336 335 331 324 323 319 310 306 301 301 300 295 291 287 289 291 277 268 275 279 279 280 281 282 283 283 280 278 276
69 45 31 18 220 200 206 224 243 234 232 244 282 1 4 337 291 248 235 240 240 235 232 230 227 227 230 230 239 252 265 281 279 277 290 300 308 330 346 348 355 359 358 358 355 344 320 303 310 316 319 325 330 336 340 339 339 339 331 324 325 318 314 314 303 297 298 293 291 291 286 284 279 274 272 273 279 282 280 283 286 284 280 278 277
44 32 31 22 222 197 202 243 291 251 236 234 222 118 55 340 293 229 225 237 240 235 230 227 227 228 229 230 236 244 259 274 275 283 304 306 296 299 317 335 345 351 352 354 353 344 325 303 302 312 323 329 331 338 341 337 339 343 338 333 334 328 326 325 314 305 303 297 292 290 285 281 278 274 272 272 275 277 277 281 285 285 286 286 282
13 7 21 42 142 188 197 280 325 314 255 235 228 228 210 211 243 245 245 248 244 237 231 230 233 235 234 232 234 235 242 263 269 284 307 311 295 286 295 318 337 345 348 350 352 346 332 308 295 303 320 332 331 335 339 339 342 345 345 344 342 343 341 332 327 325 316 308 302 295 289 285 277 271 270 269 268 270 273 276 277 281 286 287 287
360 355 10 64 110 139 229 295 308 320 291 244 238 246 243 229 239 252 256 250 252 250 244 243 241 241 241 235 231 228 229 254 269 279 300 308 295 283 290 312 333 341 342 346 351 349 338 316 293 301 317 328 331 331 332 338 345 344 342 343 341 343 344 335 331 332 327 320 316 307 296 290 283 275 271 268 263 261 266 272 274 275 276 277 283
352 358 33 93 93 63 359 318 303 310 301 249 241 246 236 232 235 242 249 248 252 254 249 249 244 239 238 229 221 220 229 251 269 281 299 305 286 278 287 305 325 333 334 342 349 349 343 323 300 305 315 323 327 325 322 327 335 337 339 336 330 333 334 329 327 324 325 327 323 316 307 298 291 281 274 269 264 260 261 267 271 271 270 271 274
347 15 75 99 90 59 352 337 308 296 290 246 234 236 233 235 234 233 239 244 248 249 245 245 239 231 226 219 216 225 239 254 267 277 290 290 283 289 289 293 316 325 323 333 344 347 344 328 309 304 304 312 317 315 315 316 316 323 330 327 320 325 325 320 321 320 321 323 320 317 314 307 298 291 281 274 267 264 263 262 263 264 264 265 267
350 10 73 98 101 307 319 338 327 292 277 252 240 237 234 237 235 234 238 242 245 248 247 243 237 231 225 222 228 236 246 255 263 271 278 277 281 290 284 285 308 315 311 324 337 342 342 329 314 306 304 308 313 314 311 307 306 309 311 312 312 317 320 317 315 315 319 321 318 316 315 308 300 292 286 280 272 266 264 260 259 260 260 261 264
344 330 26 190 256 277 291 315 327 306 284 270 260 251 244 240 239 242 243 241 241 245 248 246 241 237 233 232 238 246 252 258 265 270 273 272 274 279 276 279 294 300 302 317 328 332 337 333 320 310 307 306 308 311 308 301 303 303 300 301 304 308 312 310 307 308 315 319 318 318 314 307 299 290 282 281 275 265 264 261 255 258 260 260 262
288 259 259 263 263 272 279 294 308 301 285 283 279 267 257 249 245 247 248 246 248 251 254 254 252 248 246 244 247 253 257 261 267 271 272 273 271 267 268 277 285 286 290 301 311 319 329 333 329 320 311 307 304 303 301 299 300 301 298 299 302 305 305 300 301 308 313 315 318 319 314 307 301 294 284 279 272 262 262 261 251 251 259 261 262
263 255 256 265 266 261 257 265 285 285 281 289 293 284 274 263 250 248 252 256 261 266 267 267 266 263 259 258 259 262 264 265 267 270 271 269 264 260 265 278 280 274 273 283 295 306 316 322 324 322 315 310 309 303 298 296 295 296 295 295 295 298 300 300 301 303 307 315 319 318 315 311 304 298 293 283 271 260 261 262 255 251 258 265 268
263 263 260 266 269 264 257 263 280 285 281 287 293 290 293 287 258 247 256 266 274 278 278 277 275 272 269 268 267 268 269 266 265 267 264 252 249 261 269 272 272 266 264 276 284 290 302 308 312 316 315 312 310 307 301 294 290 288 288 290 291 293 296 298 297 296 303 314 317 315 316 314 308 302 300 295 281 267 261 261 260 259 261 265 268
266 269 270 273 276 275 272 276 285 286 277 276 283 284 288 289 274 263 268 278 283 285 286 287 286 283 279 274 269 270 269 264 259 258 249 240 249 266 270 264 265 264 261 266 274 280 289 297 302 308 311 310 308 306 302 296 289 283 282 285 287 288 292 295 294 294 300 309 311 313 314 313 310 307 304 298 283 267 259 258 261 263 263 265 268
268 271 274 276 281 284 278 273 279 283 278 271 270 273 274 278 283 282 279 282 289 295 301 303 299 295 288 278 271 270 267 258 250 246 243 249 262 267 259 252 256 260 257 259 269 274 277 284 295 302 305 305 304 304 302 297 291 284 281 283 283 284 286 291 292 289 293 301 307 310 311 310 308 305 299 294 284 271 264 261 260 261 262 266 271
267 268 271 273 280 285 275 265 269 277 275 268 260 264 274 280 283 284 283 284 292 302 308 309 308 307 301 290 278 270 261 251 246 249 256 263 266 257 247 247 252 257 256 257 264 267 266 274 285 294 300 301 300 302 302 298 294 288 283 280 280 283 284 285 287 288 291 299 307 308 307 306 304 297 290 288 286 279 273 270 270 269 267 269 273
266 263 264 268 277 278 267 258 259 267 270 263 257 260 271 281 279 274 279 287 295 303 307 307 310 311 303 294 283 270 261 256 256 262 265 260 251 242 243 248 251 258 259 256 258 260 261 268 278 291 298 295 295 300 299 294 293 290 286 283 278 278 282 282 284 288 291 296 303 304 303 298 287 280 280 282 284 280 277 276 280 281 277 272 272
269 267 266 268 277 275 262 253 253 260 263 257 256 259 268 279 278 267 272 286 293 296 295 290 293 294 289 284 278 272 266 263 264 262 257 250 242 243 251 255 257 262 264 260 255 256 259 263 273 291 298 292 291 292 290 294 299 290 284 286 282 276 279 282 284 287 291 295 297 299 300 294 279 271 274 278 279 279 277 277 281 286 289 283 274
271 271 270 271 276 272 259 250 251 257 258 253 251 257 266 273 272 266 267 278 287 291 282 270 264 266 272 273 270 270 266 262 262 256 251 253 254 258 265 266 264 263 263 263 259 256 259 261 271 289 293 292 290 283 287 303 318 316 299 287 284 283 283 285 286 288 292 294 293 293 297 296 286 276 275 275 273 272 271 272 273 279 287 288 282
273 270 268 269 270 265 258 253 252 254 254 249 245 253 264 269 266 262 263 270 281 284 273 261 251 248 257 259 257 261 259 255 256 257 258 261 262 271 277 272 270 269 266 267 264 260 261 261 270 283 288 291 285 277 291 308 316 320 320 305 290 288 287 287 288 289 292 293 292 291 293 297 291 278 272 277 279 278 273 271 271 273 277 281 281
271 270 268 268 267 261 254 251 250 250 249 244 243 250 258 262 260 255 258 268 279 281 271 260 250 246 245 244 245 250 249 248 253 256 257 259 264 272 276 270 269 272 271 271 270 266 263 261 266 273 281 287 279 274 293 308 302 298 304 300 294 291 289 289 287 288 291 291 290 290 291 297 294 277 266 271 282 285 281 276 273 274 277 277 277
269 269 268 267 266 261 254 250 247 245 244 243 242 246 250 255 257 255 259 270 277 278 275 265 255 251 246 244 248 251 252 252 254 253 254 262 268 270 268 265 265 266 268 271 270 269 268 265 265 267 274 282 274 273 290 303 296 287 286 286 289 289 288 288 284 285 290 289 288 289 291 295 295 285 271 265 270 277 281 284 283 280 279 276 274
265 263 263 261 259 257 254 249 246 243 243 242 242 245 249 251 254 257 260 266 269 270 273 273 266 259 253 251 252 253 255 255 255 255 257 262 266 266 264 264 264 265 269 273 273 273 273 271 268 266 271 276 269 273 288 297 294 288 285 283 283 284 286 287 283 284 288 288 287 289 290 292 294 290 278 264 263 269 275 284 287 283 280 278 276
263 260 259 258 255 254 253 251 249 244 240 240 243 246 248 249 252 257 259 263 268 270 271 273 271 268 262 259 258 257 257 258 257 256 258 260 261 261 263 265 265 267 269 270 271 272 272 274 273 270 270 271 270 280 293 295 287 284 283 283 285 288 289 287 284 284 286 287 290 290 290 292 294 293 279 262 262 271 275 279 285 285 283 279 276
264 258 255 254 253 251 251 249 247 242 237 239 243 244 247 249 252 256 260 263 268 271 273 272 272 272 269 264 264 261 259 260 260 258 258 260 260 261 261 262 265 270 272 270 269 271 273 276 277 274 275 274 276 287 298 295 284 280 280 282 286 291 292 288 285 286 286 288 290 289 288 291 293 293 283 267 264 269 272 276 284 288 285 279 278
264 257 252 251 251 248 247 245 242 240 239 239 242 244 247 250 253 257 261 264 267 271 275 275 273 273 272 269 267 266 263 262 261 260 260 260 260 262 260 260 264 268 272 272 270 269 271 276 277 276 278 279 278 287 297 295 283 276 275 280 282 284 289 290 289 290 290 289 287 286 287 291 293 289 280 272 269 269 270 273 279 283 281 279 283
255 251 250 250 249 248 248 246 243 244 243 242 244 247 249 250 253 257 260 263 266 270 274 276 276 275 275 273 269 267 266 266 264 263 261 260 262 262 260 261 263 264 266 267 266 264 266 272 279 283 285 285 283 287 294 293 282 274 274 279 281 281 286 290 292 293 292 289 289 293 295 295 294 285 277 275 275 272 270 272 275 277 278 279 284
250 247 246 246 247 247 246 244 244 248 250 247 247 250 250 251 253 256 259 261 265 269 273 276 278 278 277 276 273 272 271 269 267 266 264 263 264 262 261 265 267 265 264 266 265 264 264 267 275 285 293 295 292 292 296 293 282 276 275 277 280 281 283 287 293 294 294 293 295 298 299 298 297 289 283 281 278 274 270 269 270 271 274 278 284
252 246 243 242 243 243 243 244 246 250 252 250 250 251 251 252 253 255 257 260 263 268 272 273 275 277 279 280 278 277 276 273 270 268 267 266 267 265 266 270 271 266 263 264 263 263 265 267 270 279 290 296 295 295 297 294 283 277 277 281 282 281 280 285 290 291 293 296 297 298 297 297 296 293 289 285 279 274 270 267 265 266 269 272 273
257 249 244 242 243 243 245 248 250 250 248 249 252 253 253 254 254 253 255 259 263 266 267 269 272 275 280 283 281 278 277 274 271 270 271 271 273 272 270 271 270 267 264 262 263 266 269 270 271 276 284 290 291 292 293 292 284 275 274 279 281 280 281 286 286 285 288 292 293 295 294 289 288 293 300 298 284 272 267 265 263 263 264 266 268
265 258 253 248 247 248 249 250 250 249 247 249 252 253 255 257 257 256 259 261 263 263 263 267 271 273 278 284 283 277 275 273 271 272 272 272 273 274 272 270 268 268 268 267 267 269 270 271 272 274 278 282 285 286 288 288 283 272 266 270 277 282 289 292 287 280 279 283 287 288 284 284 288 298 309 313 300 277 268 266 265 265 266 267 269
271 267 263 258 254 253 253 253 252 250 249 251 252 254 257 259 259 262 264 263 261 262 263 266 270 273 278 285 284 277 275 277 277 276 273 271 270 271 272 272 270 270 270 270 269 269 270 271 270 268 269 272 276 280 282 283 280 273 265 268 276 284 292 298 294 283 276 278 283 283 280 286 296 305 313 321 320 300 280 274 273 271 269 267 266
274 272 270 266 263 260 258 258 256 253 252 253 254 256 257 259 262 266 268 265 263 264 265 267 270 274 280 284 281 273 273 278 282 281 276 271 269 269 271 273 273 272 271 270 269 269 269 270 269 265 262 263 264 268 273 279 280 274 267 270 278 283 286 291 293 288 280 275 273 274 280 289 298 305 312 323 328 317 301 294 287 277 271 268 268
276 275 274 272 271 269 266 263 260 258 256 255 257 258 259 260 264 267 267 264 263 264 265 266 269 272 279 283 279 271 270 274 278 278 276 272 270 269 270 271 271 272 272 270 268 267 266 266 266 265 263 263 262 261 264 272 279 276 268 267 274 279 282 287 292 293 288 282 278 278 284 294 299 300 306 319 325 318 312 313 302 282 268 267 273
279 280 279 276 274 273 270 267 265 263 262 261 260 261 261 263 265 266 264 262 260 261 263 265 266 270 276 281 280 274 269 269 271 272 271 270 269 268 267 267 266 268 269 268 267 268 267 265 264 264 264 265 264 261 259 264 273 276 270 266 270 275 279 283 289 294 294 292 288 284 284 291 296 295 300 313 321 317 315 316 309 291 272 265 268
283 286 286 282 277 273 270 269 267 265 266 267 266 264 264 264 264 262 262 260 258 258 261 263 266 269 273 277 278 276 270 265 265 267 267 266 266 264 264 263 262 264 266 266 266 266 266 265 264 265 266 265 262 260 258 258 264 269 268 270 274 278 280 284 290 296 300 299 294 289 288 292 296 299 305 313 316 315 316 317 310 296 276 259 250
284 288 291 288 283 277 272 269 267 267 268 269 270 268 266 264 261 260 259 258 257 258 261 263 265 267 268 269 273 276 275 266 259 260 262 263 262 261 261 262 262 262 264 265 267 266 265 266 267 267 267 266 263 261 260 257 255 255 256 262 271 277 284 288 288 289 291 289 285 286 290 292 293 295 300 303 300 298 306 313 307 287 261 249 248
286 290 291 289 284 279 275 272 271 272 272 273 274 274 271 266 262 260 259 258 258 260 262 263 263 263 264 267 269 272 270 263 257 258 259 260 260 258 260 264 267 268 269 267 266 267 266 266 267 266 265 265 264 263 261 256 253 254 253 254 258 263 270 274 272 271 276 278 275 275 279 283 283 284 286 288 284 280 290 305 307 289 257 238 247
286 288 289 288 285 281 278 276 277 278 279 278 278 278 275 272 268 265 264 263 263 263 263 262 261 259 259 262 266 265 261 257 256 256 256 259 264 267 266 267 269 271 273 271 268 268 268 268 268 269 268 268 266 264 262 260 259 261 259 255 255 258 261 266 270 273 278 278 272 267 269 275 278 277 275 277 280 278 280 294 304 293 270 250 247
285 287 287 287 287 285 282 282 283 284 285 283 280 277 275 276 276 276 275 273 270 267 263 260 259 258 257 258 259 257 254 254 253 252 252 256 265 274 278 276 272 270 271 271 270 270 270 269 270 272 273 273 272 270 269 268 266 265 262 258 257 258 261 266 271 274 276 274 268 262 263 268 270 269 269 271 273 274 276 282 291 289 275 262 256